GFSNE_prec_snow_273.txt.gz
Snowfall_Accumulation
0.0 0.1 0.0 0.0 0.0 0.1 0.3 0.5 5.0 4.3 0.5 0.0 0.0 0.0 0.0 0.0 0.0 0.0 0.0 0.0 0.0 0.0 0.0 0.1 0.1 0.2 0.1 0.1 0.1 0.1 0.0 0.0 0.0 0.0 0.0 0.0 0.0 0.0
0.0 0.0 0.0 0.0 0.0 0.0 0.0 0.1 1.1 2.1 1.4 0.0 0.0 0.0 0.0 0.0 0.0 0.0 0.0 0.0 0.0 0.1 0.0 0.0 0.1 0.2 0.2 0.1 0.2 0.1 0.3 0.1 0.1 0.0 0.0 0.0 0.0 0.0
0.2 0.4 0.3 0.0 0.1 0.0 0.0 0.1 0.1 0.4 0.5 0.1 0.1 0.0 0.0 0.0 0.0 0.0 0.0 0.0 0.0 0.0 0.1 0.1 0.1 0.2 0.1 0.1 0.2 0.2 0.2 0.3 0.2 0.2 0.1 0.3 0.2 0.1
0.5 1.0 1.6 1.2 1.3 0.3 0.2 0.0 0.2 0.2 0.4 0.1 0.6 0.3 0.1 0.0 0.0 0.0 0.0 0.0 0.0 0.0 0.0 0.0 0.2 0.1 0.1 0.2 0.1 0.2 0.3 0.2 0.3 0.2 0.2 0.2 0.3 0.3
3.4 2.0 2.3 1.9 3.5 2.6 2.0 1.0 0.2 0.6 0.9 0.2 0.2 0.0 0.8 0.3 0.2 0.7 0.3 0.1 0.1 0.0 0.0 0.0 0.0 0.1 0.1 0.0 0.1 0.1 0.2 0.3 0.2 0.2 0.2 0.1 0.1 0.3
1.8 2.1 2.4 1.5 3.7 4.1 3.6 4.3 3.2 2.1 1.3 1.4 0.5 0.6 1.0 1.0 1.5 1.5 1.2 1.3 0.5 0.3 0.5 0.1 0.1 0.1 0.0 0.1 0.3 0.0 0.0 0.1 0.2 0.2 0.3 0.2 0.0 0.1
0.3 0.3 0.5 0.4 1.0 1.8 2.6 3.6 2.5 4.4 3.8 3.0 2.1 1.0 2.0 1.1 2.9 4.1 3.7 3.4 1.9 1.5 0.9 0.7 0.0 0.0 0.5 0.4 0.0 0.1 0.0 0.2 0.3 0.2 0.3 0.1 0.1 0.0
4.7 3.1 1.7 0.3 3.6 0.7 0.5 1.5 2.7 4.4 4.4 3.9 4.7 4.9 3.5 3.0 2.3 5.2 6.2 4.8 9.2 4.8 3.9 2.9 0.6 1.0 0.5 1.7 1.1 1.1 0.2 0.3 0.4 0.2 0.3 0.1 0.1 0.8
6.2 6.6 5.4 5.4 4.0 2.9 3.1 1.9 1.6 1.0 3.2 3.7 3.7 4.4 5.4 5.4 4.8 3.9 5.5 9.8 8.2 3.9 4.1 9.2 4.1 2.9 1.6 1.4 2.2 0.5 1.0 0.2 0.3 0.5 0.8 0.3 0.1 0.0
6.1 3.5 1.8 1.6 3.4 2.9 4.8 4.9 2.6 2.6 3.0 4.9 7.2 7.1 7.5 8.1 6.0 7.1 4.7 6.2 12.4 11.6 4.8 11.4 11.4 15.5 8.8 9.4 3.7 1.9 2.3 0.8 1.4 1.7 0.6 0.7 0.6 0.1
4.0 3.0 0.9 0.9 1.0 1.3 1.2 1.0 1.0 1.4 1.3 2.2 3.9 3.7 5.3 4.0 6.1 8.9 17.4 18.3 18.3 13.0 8.2 10.7 12.2 15.1 15.3 9.9 12.1 8.2 8.7 9.4 9.7 3.1 4.0 4.2 4.1 3.7
4.5 3.1 3.6 1.4 1.9 2.0 2.2 1.6 1.8 1.2 1.7 1.7 1.6 0.9 2.0 1.8 2.0 2.1 4.3 10.5 12.0 14.5 12.2 14.0 13.3 15.4 24.1 24.7 20.0 15.0 13.7 16.2 14.4 12.0 8.7 8.6 5.7 4.9
3.9 4.5 4.2 6.9 6.7 4.0 1.6 1.5 1.7 2.0 1.8 1.3 1.4 2.1 1.4 1.8 2.0 1.3 2.3 4.0 7.6 5.8 7.5 14.4 21.0 19.4 23.2 19.8 16.9 14.7 12.0 12.8 13.9 9.8 8.4 8.5 6.6 5.0
13.4 10.4 10.3 8.7 9.4 7.0 6.2 6.9 4.5 6.1 5.8 4.1 6.1 7.3 12.5 8.4 11.4 8.1 9.7 10.0 8.6 10.0 10.5 11.6 15.6 14.5 14.6 13.8 11.4 10.7 9.1 8.3 7.9 9.8 12.0 9.4 9.4 11.9
14.3 12.6 15.4 11.9 13.2 12.0 13.9 14.3 13.7 14.1 13.9 17.7 24.6 23.2 20.5 19.1 18.2 15.6 13.4 12.3 12.7 9.1 11.0 11.4 10.6 11.5 11.2 12.1 9.8 8.1 11.9 9.4 6.5 6.5 9.6 10.7 11.9 12.0
8.9 7.8 10.6 12.4 9.8 12.6 14.9 11.5 14.6 22.7 24.6 24.3 23.4 23.6 22.6 20.9 19.4 17.6 16.6 17.3 17.6 17.4 15.7 14.4 14.1 15.9 16.9 15.1 13.9 13.3 12.1 12.1 9.7 9.8 11.5 13.7 15.3 14.7
9.4 16.8 22.6 17.2 19.5 19.8 18.7 19.1 19.1 19.6 19.9 19.2 18.8 17.5 16.8 15.4 14.5 13.0 12.6 11.5 12.9 10.7 11.8 13.4 11.6 11.5 10.2 11.0 13.3 10.6 10.6 10.1 10.1 12.5 11.1 14.6 15.8 15.0
17.1 17.4 17.5 17.0 15.6 14.7 14.7 14.0 13.1 12.7 11.8 10.8 11.0 10.1 11.0 10.6 8.7 7.9 7.2 7.8 7.5 6.7 6.3 7.0 9.1 9.9 10.3 8.5 6.7 8.8 7.5 7.1 7.1 7.4 7.9 11.4 13.3 16.3
13.0 10.1 11.5 11.2 9.9 8.6 8.0 7.4 8.4 7.6 5.6 6.3 6.4 5.9 5.1 5.7 7.1 5.8 5.6 4.6 5.3 3.9 3.1 4.2 5.4 6.5 7.3 6.6 4.9 3.4 6.3 5.2 5.3 5.9 4.6 6.3 9.2 10.4
7.2 6.3 6.6 5.7 5.3 5.2 5.2 5.2 5.6 4.8 5.0 3.9 3.9 3.6 4.0 4.4 4.4 4.5 4.5 4.9 4.2 4.4 3.7 2.3 1.7 2.4 5.0 7.5 7.2 2.6 2.5 6.6 4.6 3.8 3.9 5.3 4.8 6.2
4.9 4.6 4.4 4.4 5.1 4.9 4.6 4.7 5.6 5.7 4.4 5.7 4.6 5.3 5.5 5.7 4.7 3.7 4.2 4.3 5.8 4.7 4.7 2.3 0.6 0.9 3.2 5.2 7.5 3.4 2.6 2.1 1.8 2.2 3.8 5.2 4.5 5.0
4.8 4.4 3.6 4.1 3.6 3.8 4.3 4.4 4.3 4.8 5.3 5.2 4.1 3.7 4.2 4.0 4.3 3.2 3.4 3.6 2.8 2.7 1.8 1.8 2.1 3.1 4.0 3.9 4.5 3.0 1.9 4.1 2.8 1.5 2.2 3.4 6.4 7.8
5.0 4.2 4.2 3.6 3.2 3.5 3.6 3.9 3.4 3.1 3.4 4.4 3.6 3.2 3.9 4.3 3.3 3.5 3.3 3.2 3.4 3.1 3.4 4.2 3.1 2.3 2.4 2.4 4.1 4.7 2.8 3.6 3.5 5.0 5.2 3.2 2.9 2.1

GFSNE_prec_snow_276.txt.gz
Snowfall_Accumulation
0.0 0.1 0.0 0.0 0.0 0.1 0.3 0.5 5.0 4.3 0.5 0.0 0.0 0.0 0.0 0.0 0.0 0.0 0.0 0.0 0.0 0.0 0.0 0.1 0.1 0.2 0.1 0.1 0.1 0.1 0.0 0.0 0.0 0.0 0.0 0.0 0.0 0.0
0.0 0.0 0.0 0.0 0.0 0.0 0.0 0.1 1.1 2.1 1.4 0.0 0.0 0.0 0.0 0.0 0.0 0.0 0.0 0.0 0.0 0.1 0.0 0.0 0.1 0.2 0.2 0.1 0.2 0.1 0.3 0.1 0.1 0.0 0.0 0.0 0.0 0.0
0.2 0.4 0.3 0.0 0.1 0.0 0.0 0.1 0.1 0.4 0.5 0.1 0.1 0.0 0.0 0.0 0.0 0.0 0.0 0.0 0.0 0.0 0.1 0.1 0.1 0.2 0.1 0.1 0.2 0.2 0.2 0.3 0.2 0.2 0.1 0.3 0.2 0.1
0.5 1.0 1.6 1.2 1.3 0.3 0.2 0.0 0.2 0.2 0.4 0.1 0.6 0.3 0.1 0.0 0.0 0.0 0.0 0.0 0.0 0.0 0.0 0.0 0.2 0.1 0.1 0.2 0.1 0.2 0.3 0.2 0.3 0.2 0.2 0.2 0.3 0.3
3.4 2.0 2.3 1.9 3.5 2.6 2.0 1.0 0.2 0.6 0.9 0.2 0.2 0.0 0.8 0.3 0.2 0.7 0.3 0.1 0.1 0.0 0.0 0.0 0.0 0.1 0.1 0.0 0.1 0.1 0.2 0.3 0.2 0.2 0.2 0.1 0.1 0.3
1.8 2.1 2.4 1.5 3.7 4.1 3.6 4.3 3.2 2.1 1.3 1.4 0.5 0.6 1.0 1.0 1.5 1.5 1.2 1.3 0.5 0.3 0.5 0.1 0.1 0.1 0.0 0.1 0.3 0.0 0.0 0.1 0.2 0.2 0.3 0.2 0.0 0.1
0.3 0.3 0.5 0.4 1.0 1.8 2.6 3.6 2.5 4.4 3.8 3.0 2.1 1.0 2.0 1.1 2.9 4.1 3.7 3.4 1.9 1.5 0.9 0.7 0.0 0.0 0.5 0.4 0.0 0.1 0.0 0.2 0.3 0.2 0.3 0.1 0.1 0.0
4.7 3.2 1.7 0.3 3.8 0.7 0.5 1.5 2.7 4.4 4.4 3.9 4.7 4.9 3.5 3.0 2.3 5.2 6.2 4.8 9.2 4.8 3.9 2.9 0.6 1.0 0.5 1.7 1.1 1.1 0.2 0.3 0.4 0.2 0.3 0.1 0.1 0.8
6.2 6.6 5.4 5.5 4.2 2.9 3.1 1.9 1.6 1.0 3.2 3.7 3.7 4.4 5.4 5.4 4.8 3.9 5.5 9.8 8.2 3.9 4.1 9.2 4.1 2.9 1.6 1.4 2.2 0.5 1.0 0.2 0.3 0.5 0.8 0.3 0.1 0.0
6.1 3.5 1.8 1.6 3.4 2.9 4.8 4.9 2.6 2.6 3.0 4.9 7.2 7.1 7.5 8.1 6.0 7.1 4.7 6.2 12.4 11.6 4.8 11.4 11.4 15.5 8.8 9.4 3.7 1.9 2.3 0.8 1.4 1.7 0.6 0.7 0.6 0.1
4.0 3.0 1.0 0.9 1.1 1.3 1.2 1.0 1.0 1.4 1.3 2.2 3.9 3.7 5.3 4.0 6.1 8.9 17.4 18.3 18.3 13.0 8.2 10.7 12.2 15.1 15.3 9.9 12.1 8.2 8.7 9.4 9.7 3.1 4.0 4.2 4.1 3.7
4.5 3.1 3.6 1.4 2.0 2.1 2.2 1.6 1.8 1.2 1.7 1.7 1.6 0.9 2.0 1.8 2.0 2.1 4.3 10.5 12.0 14.5 12.2 14.0 13.3 15.4 24.1 24.7 20.0 15.0 13.7 16.2 14.4 12.0 8.7 8.6 5.7 4.9
3.9 4.5 4.2 7.0 6.7 4.1 1.6 1.5 1.8 2.0 1.8 1.3 1.4 2.1 1.4 1.8 2.0 1.3 2.3 4.0 7.6 5.8 7.5 14.4 21.0 19.4 23.2 19.8 16.9 14.7 12.0 12.8 13.9 9.8 8.4 8.5 6.6 5.0
13.6 10.7 10.5 8.7 9.4 7.0 6.2 6.9 4.6 6.1 5.8 4.1 6.1 7.3 12.5 8.4 11.4 8.1 9.7 10.0 8.6 10.0 10.5 11.6 15.6 14.5 14.6 13.8 11.4 10.7 9.1 8.3 7.9 9.8 12.0 9.4 9.4 11.9
14.3 12.6 15.4 11.9 13.2 12.0 13.9 14.3 13.7 14.1 13.9 17.7 24.6 23.2 20.5 19.1 18.2 15.6 13.4 12.3 12.7 9.1 11.0 11.4 10.6 11.5 11.2 12.1 9.8 8.1 11.9 9.4 6.5 6.5 9.6 10.7 11.9 12.0
8.9 7.8 10.6 12.4 9.8 12.6 14.9 11.5 14.6 22.7 24.8 24.7 23.7 23.7 22.6 20.9 19.4 17.6 16.6 17.3 17.6 17.4 15.7 14.4 14.1 15.9 16.9 15.1 13.9 13.3 12.1 12.1 9.7 9.8 11.5 13.7 15.3 14.7
9.4 16.8 22.6 17.2 19.5 19.8 18.7 19.1 19.1 19.6 19.9 19.2 18.8 17.7 16.9 15.4 14.5 13.0 12.6 11.5 12.9 10.7 11.8 13.4 11.6 11.5 10.2 11.0 13.3 10.6 10.6 10.1 10.1 12.5 11.1 14.6 15.8 15.0
17.1 17.4 17.5 17.0 15.7 14.7 14.7 14.0 13.1 12.7 11.8 10.8 11.0 10.1 11.3 10.9 8.9 8.0 7.4 7.9 7.5 6.7 6.3 7.0 9.1 9.9 10.3 8.5 6.7 8.8 7.5 7.1 7.1 7.4 7.9 11.4 13.3 16.3
13.0 10.1 11.5 11.2 10.0 8.6 8.0 7.4 8.6 7.8 5.6 6.3 6.8 6.3 5.5 6.0 7.4 6.0 5.8 4.8 5.5 4.1 3.1 4.2 5.4 6.5 7.3 6.6 4.9 3.4 6.3 5.2 5.3 5.9 4.6 6.3 9.2 10.4
7.2 6.4 6.6 5.7 5.3 5.4 5.2 5.3 5.6 4.8 5.0 3.9 4.1 3.9 4.4 4.8 4.8 4.7 4.7 5.1 4.5 4.6 4.0 2.6 1.7 2.4 5.0 7.5 7.2 2.6 2.5 6.6 4.6 3.8 3.9 5.3 4.8 6.2
4.9 4.6 4.4 4.4 5.1 5.0 4.6 4.7 5.6 5.9 4.6 5.9 4.8 5.6 5.8 6.0 5.0 4.1 4.6 4.5 6.0 4.9 4.9 2.7 1.2 0.9 3.2 5.2 7.5 3.4 2.6 2.1 1.8 2.2 3.8 5.2 4.5 5.0
4.8 4.5 3.6 4.1 3.6 3.9 4.3 4.4 4.3 4.8 5.3 5.4 4.3 3.9 4.4 4.3 4.6 3.6 3.7 3.9 3.1 2.9 2.0 2.0 2.1 3.1 4.5 4.4 5.0 3.4 2.3 4.1 2.8 1.5 2.2 3.4 6.4 7.8
5.0 4.2 4.3 3.6 3.2 3.6 3.6 3.9 3.4 3.1 3.4 4.4 3.6 3.2 4.1 4.5 3.5 3.7 3.6 3.5 3.7 3.4 3.5 4.3 3.1 2.3 2.4 2.4 4.4 4.9 3.0 3.8 3.5 5.0 5.2 3.2 2.9 2.1

GFSNE_prec_snow_279.txt.gz
Snowfall_Accumulation
0.0 0.1 0.0 0.0 0.0 0.1 0.3 0.5 5.0 4.3 0.5 0.0 0.0 0.0 0.0 0.0 0.0 0.0 0.0 0.0 0.0 0.0 0.0 0.1 0.1 0.2 0.1 0.1 0.1 0.1 0.0 0.0 0.0 0.0 0.0 0.0 0.0 0.0
0.0 0.0 0.0 0.0 0.0 0.0 0.0 0.1 1.1 2.1 1.4 0.0 0.0 0.0 0.0 0.0 0.0 0.0 0.0 0.0 0.0 0.1 0.0 0.0 0.1 0.2 0.2 0.1 0.2 0.1 0.3 0.1 0.1 0.0 0.0 0.0 0.0 0.0
0.2 0.4 0.3 0.0 0.1 0.0 0.0 0.1 0.1 0.4 0.5 0.1 0.1 0.0 0.0 0.0 0.0 0.0 0.0 0.0 0.0 0.0 0.1 0.1 0.1 0.2 0.1 0.1 0.2 0.2 0.2 0.3 0.2 0.2 0.1 0.3 0.2 0.1
0.5 1.0 1.6 1.2 1.3 0.3 0.2 0.0 0.2 0.2 0.4 0.1 0.6 0.3 0.1 0.0 0.0 0.0 0.0 0.0 0.0 0.0 0.0 0.0 0.2 0.1 0.1 0.2 0.1 0.2 0.3 0.2 0.3 0.2 0.2 0.2 0.3 0.3
3.4 2.1 2.4 1.9 3.5 2.6 2.0 1.0 0.2 0.6 0.9 0.2 0.2 0.0 0.8 0.3 0.2 0.7 0.3 0.1 0.1 0.0 0.0 0.0 0.0 0.1 0.1 0.0 0.1 0.1 0.2 0.3 0.2 0.2 0.2 0.1 0.1 0.3
1.8 2.2 2.5 1.6 3.8 4.1 3.6 4.3 3.2 2.1 1.3 1.4 0.5 0.6 1.0 1.0 1.5 1.5 1.2 1.3 0.5 0.3 0.5 0.1 0.1 0.1 0.0 0.1 0.3 0.0 0.0 0.1 0.2 0.2 0.3 0.2 0.0 0.1
0.3 0.4 0.5 0.4 1.0 1.8 2.8 3.6 2.5 4.4 3.8 3.0 2.1 1.0 2.0 1.1 2.9 4.1 3.7 3.4 1.9 1.5 0.9 0.7 0.0 0.0 0.5 0.4 0.0 0.1 0.0 0.2 0.3 0.2 0.3 0.1 0.1 0.0
4.7 3.2 1.7 0.3 3.8 0.8 0.7 1.5 2.7 4.4 4.4 3.9 4.7 4.9 3.5 3.0 2.3 5.2 6.2 4.8 9.2 4.8 3.9 2.9 0.6 1.0 0.5 1.7 1.1 1.1 0.2 0.3 0.4 0.2 0.3 0.1 0.1 0.8
6.3 6.7 5.4 5.5 4.2 2.9 3.1 1.9 1.6 1.0 3.2 3.7 3.7 4.4 5.4 5.4 4.8 3.9 5.5 9.8 8.2 3.9 4.1 9.2 4.1 2.9 1.6 1.4 2.2 0.5 1.0 0.2 0.3 0.5 0.8 0.3 0.1 0.0
6.1 3.5 1.8 1.7 3.4 2.9 4.8 5.0 2.7 2.6 3.0 4.9 7.2 7.1 7.5 8.1 6.0 7.1 4.7 6.2 12.4 11.6 4.8 11.4 11.4 15.5 8.8 9.4 3.7 1.9 2.3 0.8 1.4 1.7 0.6 0.7 0.6 0.1
4.0 3.0 1.0 1.0 1.1 1.3 1.2 1.0 1.0 1.4 1.3 2.2 3.9 3.7 5.3 4.0 6.1 8.9 17.4 18.3 18.3 13.0 8.2 10.7 12.2 15.1 15.3 9.9 12.1 8.2 8.7 9.4 9.7 3.1 4.0 4.2 4.1 3.7
4.5 3.1 3.6 1.4 2.0 2.1 2.2 1.6 1.8 1.3 2.0 1.7 1.6 0.9 2.0 1.8 2.0 2.1 4.3 10.5 12.0 14.5 12.2 14.0 13.3 15.4 24.1 24.7 20.0 15.0 13.7 16.2 14.4 12.0 8.7 8.6 5.7 4.9
3.9 4.5 4.2 7.0 6.7 4.1 1.6 1.6 2.0 2.0 1.9 1.7 1.4 2.1 1.4 1.8 2.0 1.3 2.3 4.0 7.6 5.8 7.5 14.4 21.0 19.4 23.2 19.8 16.9 14.7 12.0 12.8 13.9 9.8 8.4 8.5 6.6 5.0
13.6 10.7 10.5 8.7 9.4 7.0 6.2 6.9 4.6 6.1 5.8 4.1 6.4 7.8 12.5 8.4 11.4 8.1 9.7 10.0 8.6 10.0 10.5 11.6 15.6 14.5 14.6 13.8 11.4 10.7 9.1 8.3 7.9 9.8 12.0 9.4 9.4 11.9
14.3 12.6 15.4 11.9 13.2 12.0 13.9 14.3 13.7 14.1 13.9 17.7 24.7 23.3 20.7 19.1 18.2 15.6 13.4 12.3 12.7 9.1 11.0 11.4 10.6 11.5 11.2 12.1 9.8 8.1 11.9 9.4 6.5 6.5 9.6 10.7 11.9 12.0
8.9 7.8 10.6 12.4 9.8 12.6 14.9 11.5 14.6 22.7 24.8 24.7 23.8 23.8 22.6 20.9 19.5 17.6 16.6 17.3 17.6 17.4 15.7 14.4 14.1 15.9 16.9 15.1 13.9 13.3 12.1 12.1 9.7 9.8 11.5 13.7 15.3 14.7
9.4 16.8 22.6 17.2 19.5 19.8 18.7 19.1 19.1 19.6 19.9 19.2 18.8 17.7 16.9 15.4 14.5 13.0 12.7 11.5 12.9 10.7 11.8 13.4 11.6 11.5 10.2 11.0 13.3 10.6 10.6 10.1 10.1 12.5 11.1 14.6 15.8 15.0
17.1 17.4 17.5 17.0 15.7 14.7 14.8 14.1 13.1 12.7 11.8 10.8 11.0 10.1 11.3 10.9 8.9 8.0 7.4 7.9 7.5 6.7 6.3 7.0 9.1 9.9 10.3 8.5 6.7 8.8 7.5 7.1 7.1 7.4 7.9 11.4 13.3 16.3
13.0 10.1 11.5 11.3 10.0 8.6 8.0 7.4 8.7 7.8 5.6 6.3 6.8 6.3 5.5 6.0 7.4 6.0 5.8 4.9 5.5 4.3 3.3 4.2 5.4 6.5 7.3 6.6 4.9 3.4 6.3 5.2 5.3 5.9 4.6 6.3 9.2 10.4
7.2 6.4 6.6 5.7 5.3 5.4 5.2 5.3 5.6 4.8 5.0 3.9 4.1 3.9 4.4 4.8 4.8 4.9 4.9 5.1 4.5 4.8 4.2 2.8 2.0 2.6 5.1 7.5 7.2 2.6 2.5 6.6 4.6 3.8 3.9 5.3 4.8 6.2
4.9 4.6 4.4 4.4 5.1 5.0 4.6 4.7 5.6 5.9 4.6 5.9 4.8 5.6 5.8 6.0 5.0 4.1 4.6 4.5 6.0 4.9 4.9 3.1 1.6 1.6 3.2 5.2 7.6 3.4 2.6 2.1 1.8 2.2 3.8 5.2 4.5 5.0
4.8 4.5 3.6 4.1 3.6 3.9 4.3 4.4 4.3 4.8 5.3 5.4 4.3 3.9 4.4 4.3 4.7 3.8 3.7 4.1 3.1 2.9 2.3 2.2 2.2 3.2 4.7 4.7 5.3 3.7 2.5 4.1 2.8 1.5 2.2 3.4 6.4 7.8
5.1 4.3 4.3 3.6 3.2 3.6 3.6 3.9 3.4 3.1 3.4 4.4 3.6 3.2 4.1 4.6 3.5 3.7 3.6 3.5 3.7 3.4 3.5 4.3 3.1 2.3 2.6 2.7 4.7 5.2 3.3 4.0 3.7 5.0 5.2 3.2 2.9 2.1

GFSNE_prec_snow_282.txt.gz
Snowfall_Accumulation
0.0 0.1 0.0 0.0 0.0 0.1 0.3 0.5 5.0 4.3 0.5 0.0 0.0 0.0 0.0 0.0 0.0 0.0 0.0 0.0 0.0 0.0 0.0 0.1 0.1 0.2 0.1 0.1 0.1 0.1 0.0 0.0 0.0 0.0 0.0 0.0 0.0 0.0
0.0 0.0 0.0 0.0 0.0 0.0 0.0 0.1 1.1 2.1 1.4 0.0 0.0 0.0 0.0 0.0 0.0 0.0 0.0 0.0 0.0 0.1 0.0 0.0 0.1 0.2 0.2 0.1 0.2 0.1 0.3 0.1 0.1 0.0 0.0 0.0 0.0 0.0
0.2 0.4 0.3 0.0 0.1 0.0 0.0 0.1 0.1 0.4 0.5 0.1 0.1 0.0 0.0 0.0 0.0 0.0 0.0 0.0 0.0 0.0 0.1 0.1 0.1 0.2 0.1 0.1 0.2 0.2 0.2 0.3 0.2 0.2 0.1 0.3 0.2 0.1
0.6 1.0 1.6 1.2 1.3 0.3 0.2 0.0 0.2 0.2 0.4 0.1 0.6 0.3 0.1 0.0 0.0 0.0 0.0 0.0 0.0 0.0 0.0 0.0 0.2 0.1 0.1 0.2 0.1 0.2 0.3 0.2 0.3 0.2 0.2 0.2 0.3 0.3
3.5 2.2 2.5 1.9 3.6 2.6 2.0 1.0 0.2 0.6 0.9 0.2 0.2 0.0 0.8 0.3 0.2 0.7 0.3 0.1 0.1 0.0 0.0 0.0 0.0 0.1 0.1 0.0 0.1 0.1 0.2 0.3 0.2 0.2 0.2 0.1 0.1 0.3
1.9 2.2 2.5 1.7 3.9 4.2 3.7 4.3 3.2 2.1 1.3 1.4 0.5 0.6 1.0 1.0 1.5 1.5 1.2 1.3 0.5 0.3 0.5 0.1 0.1 0.1 0.0 0.1 0.3 0.0 0.0 0.1 0.2 0.2 0.3 0.2 0.0 0.1
0.4 0.4 0.5 0.5 1.1 1.9 2.9 3.6 2.5 4.4 3.8 3.0 2.1 1.0 2.0 1.1 2.9 4.1 3.7 3.4 1.9 1.5 0.9 0.7 0.0 0.0 0.5 0.4 0.0 0.1 0.0 0.2 0.3 0.2 0.3 0.1 0.1 0.0
4.8 3.3 1.7 0.3 3.9 0.8 0.7 1.6 2.7 4.4 4.4 3.9 4.7 4.9 3.5 3.0 2.3 5.2 6.2 4.8 9.2 4.8 3.9 2.9 0.6 1.0 0.5 1.7 1.1 1.1 0.2 0.3 0.4 0.2 0.3 0.1 0.1 0.8
6.3 6.8 5.4 5.5 4.2 2.9 3.2 1.9 1.8 1.0 3.2 3.7 3.7 4.4 5.4 5.4 4.8 3.9 5.5 9.8 8.2 3.9 4.1 9.2 4.1 2.9 1.6 1.4 2.2 0.5 1.0 0.2 0.3 0.5 0.8 0.3 0.1 0.0
6.1 3.7 1.9 1.7 3.4 2.9 4.8 5.0 2.8 2.6 3.0 4.9 7.2 7.1 7.5 8.1 6.0 7.1 4.7 6.2 12.4 11.6 4.8 11.4 11.4 15.5 8.8 9.4 3.7 1.9 2.3 0.8 1.4 1.7 0.6 0.7 0.6 0.1
4.0 3.0 1.1 1.1 1.1 1.3 1.2 1.0 1.2 1.5 1.3 2.2 3.9 3.7 5.3 4.0 6.1 8.9 17.4 18.3 18.3 13.0 8.2 10.7 12.2 15.1 15.3 9.9 12.1 8.2 8.7 9.4 9.7 3.1 4.0 4.2 4.1 3.7
4.5 3.1 3.6 1.5 2.0 2.1 2.2 1.6 1.8 1.6 2.1 1.7 1.6 0.9 2.0 1.8 2.0 2.1 4.3 10.5 12.0 14.5 12.2 14.0 13.3 15.4 24.1 24.7 20.0 15.0 13.7 16.2 14.4 12.0 8.7 8.6 5.7 4.9
3.9 4.5 4.2 7.0 6.7 4.1 1.6 1.7 2.3 2.2 2.2 1.9 1.4 2.1 1.4 1.8 2.0 1.3 2.3 4.0 7.6 5.8 7.5 14.4 21.0 19.4 23.2 19.8 16.9 14.7 12.0 12.8 13.9 9.8 8.4 8.5 6.6 5.0
13.6 10.7 10.5 8.7 9.4 7.0 6.2 6.9 4.6 6.1 5.8 4.2 6.6 7.8 12.5 8.4 11.4 8.1 9.7 10.0 8.6 10.0 10.5 11.6 15.6 14.5 14.6 13.8 11.4 10.7 9.1 8.3 7.9 9.8 12.0 9.4 9.4 11.9
14.3 12.6 15.4 11.9 13.2 12.0 13.9 14.3 13.7 14.1 13.9 17.8 24.8 23.7 21.3 19.6 18.2 15.6 13.4 12.3 12.7 9.1 11.0 11.4 10.6 11.5 11.2 12.1 9.8 8.1 11.9 9.4 6.5 6.5 9.6 10.7 11.9 12.0
8.9 7.8 10.6 12.4 9.8 12.6 14.9 11.5 14.6 22.7 24.9 24.8 23.9 24.0 22.6 21.1 19.8 17.8 16.6 17.3 17.6 17.4 15.7 14.4 14.1 15.9 16.9 15.1 13.9 13.3 12.1 12.1 9.7 9.8 11.5 13.7 15.3 14.7
9.4 16.8 22.6 17.2 19.5 19.8 18.7 19.1 19.1 19.6 19.9 19.2 18.8 17.7 16.9 15.4 14.5 13.2 13.0 11.5 12.9 10.7 11.8 13.4 11.6 11.5 10.2 11.0 13.3 10.6 10.6 10.1 10.1 12.5 11.1 14.6 15.8 15.0
17.1 17.4 17.5 17.0 15.7 14.7 14.8 14.1 13.1 12.7 11.8 10.8 11.0 10.1 11.3 10.9 8.9 8.0 7.4 8.1 7.8 7.0 6.6 7.0 9.1 9.9 10.3 8.5 6.7 8.8 7.5 7.1 7.1 7.4 7.9 11.4 13.3 16.3
13.0 10.1 11.5 11.3 10.0 8.6 8.0 7.4 8.7 7.8 5.6 6.3 6.8 6.3 5.5 6.0 7.4 6.0 5.8 4.9 5.6 4.3 3.3 4.3 5.4 6.5 7.3 6.6 4.9 3.4 6.3 5.2 5.3 5.9 4.6 6.3 9.2 10.4
7.2 6.4 6.6 5.7 5.3 5.4 5.2 5.3 5.6 4.8 5.0 3.9 4.1 3.9 4.4 4.8 4.8 4.9 4.9 5.1 4.5 4.8 4.2 2.8 2.0 2.7 5.2 7.5 7.2 2.6 2.5 6.6 4.6 3.8 3.9 5.3 4.8 6.2
4.9 4.6 4.4 4.4 5.1 5.0 4.6 4.7 5.6 5.9 4.6 5.9 4.8 5.6 5.8 6.1 5.1 4.1 4.6 4.5 6.0 4.9 5.0 3.1 1.6 2.0 3.2 5.2 7.6 3.6 2.6 2.1 1.8 2.2 3.8 5.2 4.5 5.0
4.8 4.5 3.6 4.1 3.6 3.9 4.3 4.4 4.3 4.8 5.3 5.4 4.3 3.9 4.5 4.4 4.8 3.8 3.8 4.2 3.1 2.9 2.3 2.2 2.2 3.2 4.7 4.9 5.5 3.9 2.5 4.3 2.8 1.5 2.2 3.4 6.4 7.8
5.1 4.3 4.3 3.6 3.2 3.6 3.6 3.9 3.4 3.1 3.4 4.4 3.6 3.2 4.2 4.6 3.6 3.7 3.6 3.5 3.7 3.4 3.5 4.3 3.1 2.3 2.6 2.9 4.7 5.2 3.5 4.0 3.7 5.2 5.2 3.2 2.9 2.1

GFSNE_prec_snow_288.txt.gz
Snowfall_Accumulation
0.0 0.1 0.0 0.0 0.0 0.1 0.3 0.5 5.0 4.3 0.5 0.0 0.0 0.0 0.0 0.0 0.0 0.0 0.0 0.0 0.0 0.0 0.0 0.1 0.1 0.2 0.1 0.1 0.1 0.1 0.0 0.0 0.0 0.0 0.0 0.0 0.0 0.0
0.0 0.0 0.0 0.0 0.0 0.0 0.0 0.1 1.1 2.1 1.4 0.0 0.0 0.0 0.0 0.0 0.0 0.0 0.0 0.0 0.0 0.1 0.0 0.0 0.1 0.2 0.2 0.1 0.2 0.1 0.3 0.1 0.1 0.0 0.0 0.0 0.0 0.0
0.2 0.4 0.4 0.0 0.1 0.0 0.0 0.1 0.1 0.4 0.5 0.1 0.1 0.0 0.0 0.0 0.0 0.0 0.0 0.0 0.0 0.0 0.1 0.1 0.1 0.2 0.1 0.1 0.2 0.2 0.2 0.3 0.2 0.2 0.1 0.3 0.2 0.1
0.7 1.1 1.7 1.2 1.3 0.3 0.2 0.0 0.2 0.2 0.4 0.1 0.6 0.3 0.1 0.0 0.0 0.0 0.0 0.0 0.0 0.0 0.0 0.0 0.2 0.1 0.1 0.2 0.1 0.2 0.3 0.2 0.3 0.2 0.2 0.2 0.3 0.3
3.7 2.3 2.6 2.0 3.7 2.7 2.0 1.1 0.2 0.6 0.9 0.2 0.2 0.0 0.8 0.3 0.2 0.7 0.3 0.1 0.1 0.0 0.0 0.0 0.0 0.1 0.1 0.0 0.1 0.1 0.2 0.3 0.2 0.2 0.2 0.1 0.1 0.3
2.0 2.3 2.6 1.9 4.1 4.4 3.8 4.4 3.2 2.1 1.3 1.4 0.5 0.6 1.0 1.0 1.5 1.5 1.2 1.3 0.5 0.3 0.5 0.1 0.1 0.1 0.0 0.1 0.3 0.0 0.0 0.1 0.2 0.2 0.3 0.2 0.0 0.1
0.5 0.4 0.6 0.7 1.2 2.0 3.1 3.7 2.5 4.5 3.8 3.0 2.1 1.0 2.0 1.1 2.9 4.1 3.7 3.4 1.9 1.5 0.9 0.7 0.0 0.0 0.5 0.4 0.0 0.1 0.0 0.2 0.3 0.2 0.3 0.1 0.1 0.0
4.9 3.3 1.8 0.4 3.9 0.8 0.7 1.7 2.7 4.6 4.4 3.9 4.7 4.9 3.5 3.0 2.3 5.2 6.2 4.8 9.2 4.8 3.9 2.9 0.6 1.0 0.5 1.7 1.1 1.1 0.2 0.3 0.4 0.2 0.3 0.1 0.1 0.8
6.4 6.9 5.4 5.6 4.2 2.9 3.2 1.9 1.8 1.2 3.2 3.9 3.7 4.4 5.4 5.4 4.8 3.9 5.5 9.8 8.2 3.9 4.1 9.2 4.1 2.9 1.6 1.4 2.2 0.5 1.0 0.2 0.3 0.5 0.8 0.3 0.1 0.0
6.1 3.8 2.0 1.7 3.5 2.9 4.8 5.0 2.9 2.7 3.1 4.9 7.3 7.1 7.5 8.1 6.0 7.1 4.7 6.2 12.4 11.6 4.8 11.4 11.4 15.5 8.8 9.4 3.7 1.9 2.3 0.8 1.4 1.7 0.6 0.7 0.6 0.1
4.0 3.0 1.2 1.2 1.2 1.3 1.2 1.0 1.2 1.5 1.4 2.2 3.9 3.7 5.3 4.0 6.1 8.9 17.4 18.3 18.3 13.0 8.2 10.7 12.2 15.1 15.3 9.9 12.1 8.2 8.7 9.4 9.7 3.1 4.0 4.2 4.1 3.7
4.5 3.1 3.6 1.5 2.0 2.1 2.2 1.6 1.8 1.6 2.4 1.7 1.6 0.9 2.0 1.8 2.0 2.1 4.3 10.5 12.0 14.5 12.2 14.0 13.3 15.4 24.1 24.7 20.0 15.0 13.7 16.2 14.4 12.0 8.7 8.6 5.7 4.9
3.9 4.5 4.2 7.0 6.7 4.1 1.6 1.8 2.7 2.5 2.2 2.1 1.5 2.1 1.4 1.8 2.0 1.3 2.3 4.0 7.6 5.8 7.5 14.4 21.0 19.4 23.2 19.8 16.9 14.7 12.0 12.8 13.9 9.8 8.4 8.5 6.6 5.0
13.6 10.7 10.5 8.7 9.4 7.0 6.2 6.9 4.6 6.1 5.8 4.2 6.6 7.8 12.6 8.5 11.4 8.1 9.7 10.0 8.6 10.0 10.5 11.6 15.6 14.5 14.6 13.8 11.4 10.7 9.1 8.3 7.9 9.8 12.0 9.4 9.4 11.9
14.3 12.6 15.4 11.9 13.2 12.0 13.9 14.3 13.7 14.1 13.9 17.8 25.0 24.1 21.9 20.0 18.2 15.6 13.4 12.3 12.7 9.1 11.0 11.4 10.6 11.5 11.2 12.1 9.8 8.1 11.9 9.4 6.5 6.5 9.6 10.7 11.9 12.0
8.9 7.8 10.6 12.4 9.8 12.6 14.9 11.5 14.6 22.8 25.0 24.9 24.1 24.2 22.7 21.2 19.9 17.9 16.8 17.9 17.6 17.4 15.7 14.4 14.1 15.9 16.9 15.1 13.9 13.3 12.1 12.1 9.7 9.8 11.5 13.7 15.3 14.7
9.4 16.8 22.6 17.2 19.5 19.8 18.7 19.1 19.1 19.6 19.9 19.3 18.8 17.8 16.9 15.4 14.5 13.3 13.0 11.5 13.2 11.0 11.8 13.4 11.6 11.5 10.2 11.0 13.3 10.6 10.6 10.1 10.1 12.5 11.1 14.6 15.8 15.0
17.1 17.4 17.5 17.0 15.7 14.7 14.8 14.1 13.1 12.7 11.8 10.8 11.0 10.1 11.4 10.9 8.9 8.0 7.4 8.4 8.2 7.4 6.9 7.1 9.2 9.9 10.3 8.5 6.7 8.8 7.5 7.1 7.1 7.4 7.9 11.4 13.3 16.3
13.0 10.1 11.5 11.3 10.0 8.6 8.0 7.4 8.7 7.8 5.6 6.3 6.8 6.3 5.5 6.0 7.4 6.0 5.8 4.9 5.6 4.5 3.5 4.5 5.6 7.1 7.5 6.9 4.9 3.4 6.3 5.2 5.3 5.9 4.6 6.3 9.2 10.4
7.2 6.4 6.6 5.7 5.3 5.4 5.2 5.3 5.6 4.8 5.0 3.9 4.1 3.9 4.4 4.8 4.8 4.9 4.9 5.2 4.5 4.8 4.2 2.8 2.0 3.0 6.1 8.6 8.0 2.6 2.5 7.3 4.6 3.8 3.9 5.3 4.8 6.2
4.9 4.6 4.4 4.4 5.1 5.0 4.6 4.7 5.6 5.9 4.6 5.9 4.8 5.6 5.8 6.1 5.1 4.1 4.6 4.5 6.0 4.9 5.0 3.1 1.6 2.0 3.2 5.2 8.1 4.0 2.7 2.1 1.8 2.8 4.4 5.2 4.5 5.0
4.8 4.5 3.6 4.1 3.6 3.9 4.3 4.4 4.3 4.8 5.3 5.4 4.3 3.9 4.5 4.4 4.8 3.8 3.8 4.2 3.1 2.9 2.3 2.2 2.2 3.2 4.7 4.9 5.6 4.1 2.6 4.3 2.8 1.5 2.2 3.4 6.9 8.7
5.1 4.3 4.3 3.6 3.2 3.6 3.6 3.9 3.4 3.1 3.4 4.4 3.6 3.2 4.2 4.6 3.6 3.7 3.6 3.5 3.7 3.4 3.5 4.3 3.1 2.3 2.6 2.9 4.7 5.3 3.6 4.0 3.7 5.2 5.2 3.2 2.9 2.1

GFSNE_prec_snow_291.txt.gz
Snowfall_Accumulation
0.0 0.1 0.0 0.0 0.0 0.1 0.3 0.5 5.8 4.3 0.5 0.0 0.0 0.0 0.0 0.0 0.0 0.0 0.0 0.0 0.0 0.0 0.0 0.1 0.1 0.2 0.1 0.1 0.1 0.1 0.0 0.0 0.0 0.0 0.0 0.0 0.0 0.0
0.0 0.0 0.0 0.0 0.0 0.0 0.0 0.1 1.1 2.1 1.4 0.0 0.0 0.0 0.0 0.0 0.0 0.0 0.0 0.0 0.0 0.1 0.0 0.0 0.1 0.2 0.2 0.1 0.2 0.1 0.3 0.1 0.1 0.0 0.0 0.0 0.0 0.0
0.2 0.5 0.4 0.0 0.1 0.0 0.0 0.1 0.1 0.4 0.5 0.1 0.1 0.0 0.0 0.0 0.0 0.0 0.0 0.0 0.0 0.0 0.1 0.1 0.1 0.2 0.1 0.1 0.2 0.2 0.2 0.3 0.2 0.2 0.1 0.3 0.2 0.1
0.8 1.1 1.8 1.2 1.3 0.3 0.2 0.0 0.2 0.2 0.4 0.1 0.6 0.3 0.1 0.0 0.0 0.0 0.0 0.0 0.0 0.0 0.0 0.0 0.2 0.1 0.1 0.2 0.1 0.2 0.3 0.2 0.3 0.2 0.2 0.2 0.3 0.3
3.7 2.3 2.6 2.0 3.7 2.7 2.0 1.1 0.2 0.6 0.9 0.2 0.2 0.0 0.8 0.3 0.2 0.7 0.3 0.1 0.1 0.0 0.0 0.0 0.0 0.1 0.1 0.0 0.1 0.1 0.2 0.3 0.2 0.2 0.2 0.1 0.1 0.3
2.0 2.4 2.7 1.9 4.2 4.4 3.8 4.4 3.2 2.1 1.3 1.4 0.5 0.6 1.0 1.0 1.5 1.5 1.2 1.3 0.5 0.3 0.5 0.1 0.1 0.1 0.0 0.1 0.3 0.0 0.0 0.1 0.2 0.2 0.3 0.2 0.0 0.1
0.5 0.4 0.6 0.7 1.2 2.0 3.1 3.8 2.5 4.5 3.8 3.0 2.1 1.0 2.0 1.1 2.9 4.1 3.7 3.4 1.9 1.5 0.9 0.7 0.0 0.0 0.5 0.4 0.0 0.1 0.0 0.2 0.3 0.2 0.3 0.1 0.1 0.0
4.9 3.3 1.8 0.4 3.9 0.8 0.7 1.7 2.7 4.6 4.4 3.9 4.7 4.9 3.5 3.0 2.3 5.2 6.2 4.8 9.2 4.8 3.9 2.9 0.6 1.0 0.5 1.7 1.1 1.1 0.2 0.3 0.4 0.2 0.3 0.1 0.1 0.8
6.4 7.0 5.4 5.6 4.2 2.9 3.2 1.9 1.8 1.2 3.3 4.0 3.9 4.4 5.4 5.4 4.8 3.9 5.5 9.8 8.2 3.9 4.1 9.2 4.1 2.9 1.6 1.4 2.2 0.5 1.0 0.2 0.3 0.5 0.8 0.3 0.1 0.0
6.1 3.8 2.1 1.7 3.5 2.9 4.8 5.0 2.9 2.7 3.2 5.0 7.5 7.5 7.5 8.1 6.0 7.1 4.7 6.2 12.4 11.6 4.8 11.4 11.4 15.5 8.8 9.4 3.7 1.9 2.3 0.8 1.4 1.7 0.6 0.7 0.6 0.1
4.0 3.0 1.2 1.2 1.2 1.3 1.2 1.0 1.2 1.6 1.4 2.2 3.9 3.7 5.3 4.0 6.1 8.9 17.4 18.3 18.3 13.0 8.2 10.7 12.2 15.1 15.3 9.9 12.1 8.2 8.7 9.4 9.7 3.1 4.0 4.2 4.1 3.7
4.5 3.1 3.6 1.5 2.0 2.1 2.2 1.6 1.9 1.7 2.4 1.7 1.7 1.0 2.0 1.8 2.0 2.1 4.3 10.5 12.0 14.5 12.2 14.0 13.3 15.4 24.1 24.7 20.0 15.0 13.7 16.2 14.4 12.0 8.7 8.6 5.7 4.9
3.9 4.5 4.2 7.0 6.7 4.1 1.6 1.8 2.8 2.6 2.2 2.1 1.6 2.2 1.4 1.8 2.0 1.3 2.3 4.0 7.6 5.8 7.5 14.4 21.0 19.4 23.2 19.8 16.9 14.7 12.0 12.8 13.9 9.8 8.4 8.5 6.6 5.0
13.6 10.7 10.5 8.7 9.4 7.0 6.2 6.9 4.6 6.1 5.8 4.2 6.6 7.8 12.6 8.5 11.6 8.4 9.7 10.0 8.6 10.0 10.5 11.6 15.6 14.5 14.6 13.8 11.4 10.7 9.1 8.3 7.9 9.8 12.0 9.4 9.4 11.9
14.3 12.6 15.4 11.9 13.2 12.0 13.9 14.3 13.7 14.1 13.9 17.9 25.0 24.2 22.0 20.1 18.2 15.8 13.4 12.3 12.7 9.1 11.0 11.4 10.6 11.5 11.2 12.1 9.8 8.1 11.9 9.4 6.5 6.5 9.6 10.7 11.9 12.0
8.9 7.8 10.6 12.4 9.8 12.6 14.9 11.5 14.6 22.8 25.0 25.0 24.1 24.2 22.7 21.2 19.9 17.9 16.9 18.0 17.6 17.4 15.7 14.4 14.1 15.9 16.9 15.1 13.9 13.3 12.1 12.1 9.7 9.8 11.5 13.7 15.3 14.7
9.4 16.8 22.6 17.2 19.5 19.8 18.7 19.1 19.1 19.6 19.9 19.3 18.8 17.8 16.9 15.4 14.5 13.3 13.0 11.5 13.3 11.3 12.2 13.4 11.6 11.5 10.2 11.0 13.3 10.6 10.6 10.1 10.1 12.5 11.1 14.6 15.8 15.0
17.1 17.4 17.5 17.0 15.7 14.7 14.8 14.1 13.1 12.7 11.8 10.8 11.0 10.1 11.4 10.9 8.9 8.0 7.4 8.4 8.2 7.4 6.9 7.2 9.2 10.5 10.8 8.5 6.7 8.8 7.5 7.1 7.1 7.4 7.9 11.4 13.3 16.3
13.0 10.1 11.5 11.3 10.0 8.6 8.0 7.4 8.7 7.8 5.6 6.3 6.8 6.3 5.5 6.0 7.4 6.0 5.8 4.9 5.6 4.5 3.5 4.5 5.6 7.3 8.0 7.4 5.2 3.4 6.3 5.2 5.3 5.9 4.6 6.3 9.2 10.4
7.2 6.4 6.6 5.7 5.3 5.4 5.2 5.3 5.6 4.8 5.0 3.9 4.1 3.9 4.4 4.8 4.8 4.9 4.9 5.2 4.5 4.8 4.2 2.8 2.0 3.0 6.4 9.0 8.4 2.6 2.5 7.3 4.6 4.2 3.9 5.3 4.8 6.2
4.9 4.6 4.4 4.4 5.1 5.0 4.6 4.7 5.6 5.9 4.6 5.9 4.8 5.6 5.8 6.1 5.1 4.1 4.6 4.5 6.0 4.9 5.0 3.1 1.6 2.0 3.2 5.2 8.1 4.0 2.7 2.1 1.8 2.8 4.4 5.2 4.5 5.0
4.8 4.5 3.6 4.1 3.6 3.9 4.3 4.4 4.3 4.8 5.3 5.4 4.3 3.9 4.5 4.4 4.8 3.8 3.8 4.2 3.1 2.9 2.3 2.2 2.2 3.2 4.7 4.9 5.6 4.1 2.6 4.3 2.8 1.5 2.2 3.4 7.4 9.4
5.1 4.3 4.3 3.6 3.2 3.6 3.6 3.9 3.4 3.1 3.4 4.4 3.6 3.2 4.2 4.6 3.6 3.7 3.6 3.5 3.7 3.4 3.5 4.3 3.1 2.3 2.6 2.9 4.7 5.3 3.6 4.0 3.7 5.2 5.2 3.2 2.9 2.1

GFSNE_prec_snow_294.txt.gz
Snowfall_Accumulation
0.0 0.2 0.0 0.0 0.0 0.1 0.3 0.5 6.4 4.3 0.5 0.0 0.0 0.0 0.0 0.0 0.0 0.0 0.0 0.0 0.0 0.0 0.0 0.1 0.1 0.2 0.1 0.1 0.1 0.1 0.0 0.0 0.0 0.0 0.0 0.0 0.0 0.0
0.0 0.0 0.0 0.0 0.0 0.0 0.0 0.1 1.1 3.0 1.4 0.0 0.0 0.0 0.0 0.0 0.0 0.0 0.0 0.0 0.0 0.1 0.0 0.0 0.1 0.2 0.2 0.1 0.2 0.1 0.3 0.1 0.1 0.0 0.0 0.0 0.0 0.0
0.2 0.5 0.4 0.0 0.1 0.0 0.0 0.1 1.3 0.4 0.5 0.1 0.1 0.0 0.0 0.0 0.0 0.0 0.0 0.0 0.0 0.0 0.1 0.1 0.1 0.2 0.1 0.1 0.2 0.2 0.2 0.3 0.2 0.2 0.1 0.3 0.2 0.1
0.8 1.1 1.8 1.2 1.3 0.3 0.2 0.0 0.9 0.2 0.4 0.1 0.6 0.3 0.1 0.0 0.0 0.0 0.0 0.0 0.0 0.0 0.0 0.0 0.2 0.1 0.1 0.2 0.1 0.2 0.3 0.2 0.3 0.2 0.2 0.2 0.3 0.3
3.7 2.4 2.7 2.0 3.7 2.7 2.0 1.1 0.3 0.6 0.9 0.2 0.2 0.0 0.8 0.3 0.2 0.7 0.3 0.1 0.1 0.0 0.0 0.0 0.0 0.1 0.1 0.0 0.1 0.1 0.2 0.3 0.2 0.2 0.2 0.1 0.1 0.3
2.0 2.4 2.7 2.1 4.4 4.5 3.9 4.5 3.2 2.5 1.3 1.4 0.5 0.6 1.0 1.0 1.5 1.5 1.2 1.3 0.5 0.3 0.5 0.1 0.1 0.1 0.0 0.1 0.3 0.0 0.0 0.1 0.2 0.2 0.3 0.2 0.0 0.1
0.5 0.4 0.7 0.8 1.2 2.1 3.2 3.8 2.5 4.5 4.3 3.0 2.1 1.0 2.0 1.1 2.9 4.1 3.7 3.4 1.9 1.5 0.9 0.7 0.0 0.0 0.5 0.4 0.0 0.1 0.0 0.2 0.3 0.2 0.3 0.1 0.1 0.0
4.9 3.3 1.8 0.4 4.0 0.8 0.9 1.8 2.8 4.7 4.7 4.4 4.7 4.9 3.5 3.0 2.3 5.2 6.2 4.8 9.2 4.8 3.9 2.9 0.6 1.0 0.5 1.7 1.1 1.1 0.2 0.3 0.4 0.2 0.3 0.1 0.1 0.8
6.4 7.0 5.4 5.6 4.2 2.9 3.2 2.0 1.8 1.4 3.4 4.1 4.2 4.4 5.4 5.4 4.8 3.9 5.5 9.8 8.2 3.9 4.1 9.2 4.1 2.9 1.6 1.4 2.2 0.5 1.0 0.2 0.3 0.5 0.8 0.3 0.1 0.0
6.1 3.8 2.1 1.7 3.5 2.9 4.8 5.1 2.9 2.9 3.3 5.0 7.6 7.5 7.5 8.1 6.0 7.1 4.7 6.2 12.4 11.6 4.8 11.4 11.4 15.5 8.8 9.4 3.7 1.9 2.3 0.8 1.4 1.7 0.6 0.7 0.6 0.1
4.0 3.0 1.2 1.2 1.2 1.3 1.2 1.0 1.2 1.6 1.4 2.3 3.9 3.7 5.3 4.0 6.1 8.9 17.4 18.3 18.3 13.0 8.2 10.7 12.2 15.1 15.3 9.9 12.1 8.2 8.7 9.4 9.7 3.1 4.0 4.2 4.1 3.7
4.5 3.1 3.6 1.5 2.0 2.1 2.2 1.6 1.9 1.9 2.5 1.7 1.7 1.0 2.0 1.8 2.0 2.1 4.3 10.5 12.0 14.5 12.2 14.0 13.3 15.4 24.1 24.7 20.0 15.0 13.7 16.2 14.4 12.0 8.7 8.6 5.7 4.9
3.9 4.5 4.2 7.0 6.7 4.1 1.6 1.8 2.9 2.6 2.2 2.1 1.6 2.2 1.4 1.8 2.0 1.3 2.3 4.0 7.6 5.8 7.5 14.4 21.0 19.4 23.2 19.8 16.9 14.7 12.0 12.8 13.9 9.8 8.4 8.5 6.6 5.0
13.6 10.7 10.5 8.7 9.4 7.0 6.2 6.9 4.6 6.1 5.8 4.2 6.6 7.8 12.7 8.7 12.1 8.4 9.7 10.0 8.6 10.0 10.5 11.6 15.6 14.5 14.6 13.8 11.4 10.7 9.1 8.3 7.9 9.8 12.0 9.4 9.4 11.9
14.3 12.6 15.4 11.9 13.2 12.0 13.9 14.3 13.7 14.1 13.9 17.9 25.0 24.2 22.0 20.1 18.2 15.9 13.4 12.3 12.7 9.1 11.0 11.4 10.6 11.5 11.2 12.1 9.8 8.1 11.9 9.4 6.5 6.5 9.6 10.7 11.9 12.0
8.9 7.8 10.6 12.4 9.8 12.6 14.9 11.5 14.6 22.8 25.0 25.0 24.1 24.2 22.7 21.2 19.9 17.9 16.9 18.0 17.6 17.9 15.7 14.4 14.1 15.9 16.9 15.1 13.9 13.3 12.1 12.1 9.7 9.8 11.5 13.7 15.3 14.7
9.4 16.8 22.6 17.2 19.5 19.8 18.7 19.1 19.1 19.6 19.9 19.3 18.8 17.8 16.9 15.4 14.5 13.3 13.0 11.5 13.3 11.3 12.5 14.2 11.6 11.5 10.2 11.0 13.3 10.6 10.6 10.1 10.1 12.5 11.1 14.6 15.8 15.0
17.1 17.4 17.5 17.0 15.7 14.7 14.8 14.1 13.1 12.7 11.8 10.8 11.0 10.1 11.4 10.9 8.9 8.0 7.4 8.4 8.2 7.4 6.9 7.2 9.2 10.8 10.8 8.5 6.7 8.8 7.5 7.1 7.1 7.4 7.9 11.4 13.3 16.3
13.0 10.1 11.5 11.3 10.0 8.6 8.0 7.4 8.7 7.8 5.6 6.3 6.8 6.3 5.5 6.0 7.4 6.0 5.8 4.9 5.6 4.5 3.5 4.5 5.6 7.3 8.1 7.7 5.2 3.4 6.3 5.2 5.6 5.9 4.6 6.3 9.2 10.4
7.2 6.4 6.6 5.7 5.3 5.4 5.2 5.3 5.6 4.8 5.0 3.9 4.1 3.9 4.4 4.8 4.8 4.9 4.9 5.2 4.5 4.8 4.2 2.8 2.0 3.0 6.4 9.2 8.6 2.6 2.5 7.3 4.6 4.2 4.1 5.3 4.8 6.2
4.9 4.6 4.4 4.4 5.1 5.0 4.6 4.7 5.6 5.9 4.6 5.9 4.8 5.6 5.8 6.1 5.1 4.1 4.6 4.5 6.0 4.9 5.0 3.1 1.6 2.0 3.2 5.2 8.1 4.0 2.7 2.1 1.8 2.8 4.4 5.2 4.5 5.0
4.8 4.5 3.6 4.1 3.6 3.9 4.3 4.4 4.3 4.8 5.3 5.4 4.3 3.9 4.5 4.4 4.8 3.8 3.8 4.2 3.1 2.9 2.3 2.2 2.2 3.2 4.7 4.9 5.6 4.1 2.6 4.3 2.8 1.5 2.2 3.4 7.4 9.4
5.1 4.3 4.3 3.6 3.2 3.6 3.6 3.9 3.4 3.1 3.4 4.4 3.6 3.2 4.2 4.6 3.6 3.7 3.6 3.5 3.7 3.4 3.5 4.3 3.1 2.3 2.6 2.9 4.7 5.3 3.6 4.0 3.7 5.2 5.2 3.2 2.9 2.1

GFSNE_prec_snow_300.txt.gz
Snowfall_Accumulation
0.2 0.4 0.5 0.7 1.2 1.3 1.1 1.3 6.4 4.3 0.5 0.0 0.0 0.0 0.0 0.0 0.0 0.0 0.0 0.0 0.0 0.0 0.0 0.1 0.1 0.2 0.1 0.1 0.1 0.1 0.0 0.0 0.0 0.0 0.0 0.0 0.0 0.0
0.2 0.2 0.3 0.6 0.9 0.8 0.6 0.1 1.1 3.0 1.4 0.0 0.0 0.0 0.0 0.0 0.0 0.0 0.0 0.0 0.0 0.1 0.0 0.0 0.1 0.2 0.2 0.1 0.2 0.1 0.3 0.1 0.1 0.0 0.0 0.0 0.0 0.0
0.3 0.6 0.7 0.6 1.0 0.8 0.3 0.8 1.8 0.4 0.5 0.1 0.1 0.0 0.0 0.0 0.0 0.0 0.0 0.0 0.0 0.0 0.1 0.1 0.1 0.2 0.1 0.1 0.2 0.2 0.2 0.3 0.2 0.2 0.1 0.3 0.2 0.1
1.0 1.3 2.0 1.6 1.9 1.0 0.7 0.9 1.9 0.2 0.4 0.1 0.6 0.3 0.1 0.0 0.0 0.0 0.0 0.0 0.0 0.0 0.0 0.0 0.2 0.1 0.1 0.2 0.1 0.2 0.3 0.2 0.3 0.2 0.2 0.2 0.3 0.3
3.9 2.7 3.1 2.5 4.3 3.4 2.7 1.4 1.4 0.6 0.9 0.2 0.2 0.0 0.8 0.3 0.2 0.7 0.3 0.1 0.1 0.0 0.0 0.0 0.0 0.1 0.1 0.0 0.1 0.1 0.2 0.3 0.2 0.2 0.2 0.1 0.1 0.3
2.1 2.5 3.3 2.8 5.2 5.3 4.7 4.6 3.8 2.5 1.3 1.4 0.5 0.6 1.0 1.0 1.5 1.5 1.2 1.3 0.5 0.3 0.5 0.1 0.1 0.1 0.0 0.1 0.3 0.0 0.0 0.1 0.2 0.2 0.3 0.2 0.0 0.1
0.5 0.5 1.2 1.3 1.6 2.6 3.9 4.7 2.7 5.0 4.3 3.0 2.1 1.0 2.0 1.1 2.9 4.1 3.7 3.4 1.9 1.5 0.9 0.7 0.0 0.0 0.5 0.4 0.0 0.1 0.0 0.2 0.3 0.2 0.3 0.1 0.1 0.0
5.0 3.4 1.9 0.8 4.2 1.0 1.4 2.6 4.1 5.0 4.7 4.4 4.7 4.9 3.5 3.0 2.3 5.2 6.2 4.8 9.2 4.8 3.9 2.9 0.6 1.0 0.5 1.7 1.1 1.1 0.2 0.3 0.4 0.2 0.3 0.1 0.1 0.8
6.5 7.0 5.5 5.7 4.3 3.0 3.4 2.3 2.7 1.6 3.8 4.1 4.2 4.4 5.4 5.4 4.8 3.9 5.5 9.8 8.2 3.9 4.1 9.2 4.1 2.9 1.6 1.4 2.2 0.5 1.0 0.2 0.3 0.5 0.8 0.3 0.1 0.0
6.1 3.8 2.1 1.8 3.7 3.1 4.8 5.3 3.5 3.8 3.4 5.0 7.6 7.5 7.5 8.1 6.0 7.1 4.7 6.2 12.4 11.6 4.8 11.4 11.4 15.5 8.8 9.4 3.7 1.9 2.3 0.8 1.4 1.7 0.6 0.7 0.6 0.1
4.0 3.0 1.2 1.2 1.2 1.3 1.2 1.1 1.5 2.5 2.3 2.4 3.9 3.7 5.3 4.0 6.1 8.9 17.4 18.3 18.3 13.0 8.2 10.7 12.2 15.1 15.3 9.9 12.1 8.2 8.7 9.4 9.7 3.1 4.0 4.2 4.1 3.7
4.5 3.1 3.6 1.5 2.0 2.1 2.2 1.7 2.1 2.9 3.1 1.7 1.7 1.0 2.0 1.8 2.0 2.1 4.3 10.5 12.0 14.5 12.2 14.0 13.3 15.4 24.1 24.7 20.0 15.0 13.7 16.2 14.4 12.0 8.7 8.6 5.7 4.9
3.9 4.5 4.2 7.0 6.7 4.1 1.6 1.9 3.3 2.8 2.3 2.4 1.6 2.2 1.4 1.8 2.0 1.3 2.3 4.0 7.6 5.8 7.5 14.4 21.0 19.4 23.2 19.8 16.9 14.7 12.0 12.8 13.9 9.8 8.4 8.5 6.6 5.0
13.6 10.7 10.5 8.7 9.4 7.0 6.2 6.9 4.6 6.1 5.8 4.2 6.6 7.9 12.8 8.9 12.5 8.4 9.7 10.0 8.6 10.0 10.5 11.6 15.6 14.5 14.6 13.8 11.4 10.7 9.1 8.3 7.9 9.8 12.0 9.4 9.4 11.9
14.3 12.6 15.4 11.9 13.2 12.0 13.9 14.3 13.7 14.1 13.9 17.9 25.0 24.2 22.2 20.3 18.4 16.2 13.4 12.3 12.7 9.1 11.0 11.4 10.6 11.5 11.2 12.1 9.8 8.1 11.9 9.4 6.5 6.5 9.6 10.7 11.9 12.0
8.9 7.8 10.6 12.4 9.8 12.6 14.9 11.5 14.6 22.8 25.0 25.0 24.1 24.2 22.7 21.2 19.9 17.9 16.9 18.0 17.8 17.9 15.7 14.4 14.1 15.9 16.9 15.1 13.9 13.3 12.1 12.1 9.7 9.8 11.5 13.7 15.3 14.7
9.4 16.8 22.6 17.2 19.5 19.8 18.7 19.1 19.1 19.6 19.9 19.3 18.8 17.8 16.9 15.4 14.5 13.3 13.0 11.5 13.3 11.7 13.7 15.4 13.5 13.5 12.1 12.7 13.3 13.2 13.1 10.1 10.1 12.5 11.1 14.6 15.8 15.0
17.1 17.4 17.5 17.0 15.7 14.7 14.8 14.1 13.1 12.7 11.8 10.8 11.0 10.1 11.4 10.9 8.9 8.0 7.4 8.4 8.2 7.4 6.9 7.5 9.6 12.5 12.9 10.9 8.1 12.1 11.1 11.1 9.9 9.8 10.3 13.9 13.3 16.3
13.0 10.1 11.5 11.3 10.0 8.6 8.0 7.4 8.7 7.8 5.6 6.3 6.8 6.3 5.5 6.0 7.4 6.0 5.8 4.9 5.6 4.5 3.5 4.5 5.6 7.3 8.5 8.8 6.3 3.4 7.6 7.1 8.2 9.1 8.3 10.0 11.8 12.6
7.2 6.4 6.6 5.7 5.3 5.4 5.2 5.3 5.6 4.8 5.0 3.9 4.1 3.9 4.4 4.8 4.8 4.9 4.9 5.2 4.5 4.8 4.2 2.8 2.0 3.0 6.4 9.3 8.6 2.6 2.5 7.5 4.9 4.8 4.7 6.7 6.2 7.3
4.9 4.6 4.4 4.4 5.1 5.0 4.6 4.7 5.6 5.9 4.6 5.9 4.8 5.6 5.8 6.1 5.1 4.1 4.6 4.5 6.0 4.9 5.0 3.1 1.6 2.0 3.2 5.2 8.1 4.0 2.8 2.2 1.9 2.9 4.4 5.3 4.5 5.1
4.8 4.5 3.6 4.1 3.6 3.9 4.3 4.4 4.3 4.8 5.3 5.4 4.3 3.9 4.5 4.4 4.8 3.8 3.8 4.2 3.1 2.9 2.3 2.2 2.2 3.2 4.7 4.9 5.6 4.1 2.6 4.3 2.9 1.6 2.3 3.5 7.4 9.5
5.1 4.3 4.3 3.6 3.2 3.6 3.6 3.9 3.4 3.1 3.4 4.4 3.6 3.2 4.2 4.6 3.6 3.7 3.6 3.5 3.7 3.4 3.5 4.3 3.1 2.3 2.6 2.9 4.7 5.3 3.6 4.0 3.7 5.2 5.2 3.2 2.9 2.1

GFSNE_prec_snow_303.txt.gz
Snowfall_Accumulation
0.4 1.0 1.8 2.1 2.9 3.2 2.6 2.2 6.7 4.3 0.5 0.0 0.0 0.0 0.0 0.0 0.0 0.0 0.0 0.0 0.0 0.0 0.0 0.1 0.1 0.2 0.1 0.1 0.1 0.1 0.0 0.0 0.0 0.0 0.0 0.0 0.0 0.0
0.5 0.8 1.4 2.2 2.8 2.7 2.0 0.8 1.1 3.0 1.4 0.0 0.0 0.0 0.0 0.0 0.0 0.0 0.0 0.0 0.0 0.1 0.0 0.0 0.1 0.2 0.2 0.1 0.2 0.1 0.3 0.1 0.1 0.0 0.0 0.0 0.0 0.0
0.5 1.4 1.8 1.9 2.3 2.3 1.2 0.8 1.8 0.4 0.5 0.1 0.1 0.0 0.0 0.0 0.0 0.0 0.0 0.0 0.0 0.0 0.1 0.1 0.1 0.2 0.1 0.1 0.2 0.2 0.2 0.3 0.2 0.2 0.1 0.3 0.2 0.1
1.3 1.9 3.0 2.7 2.9 2.0 1.5 0.9 1.9 0.2 0.4 0.1 0.6 0.3 0.1 0.0 0.0 0.0 0.0 0.0 0.0 0.0 0.0 0.0 0.2 0.1 0.1 0.2 0.1 0.2 0.3 0.2 0.3 0.2 0.2 0.2 0.3 0.3
4.4 3.3 3.9 3.5 5.5 4.5 2.7 1.4 1.4 0.6 0.9 0.2 0.2 0.0 0.8 0.3 0.2 0.7 0.3 0.1 0.1 0.0 0.0 0.0 0.0 0.1 0.1 0.0 0.1 0.1 0.2 0.3 0.2 0.2 0.2 0.1 0.1 0.3
2.4 3.0 4.0 4.1 6.8 6.6 5.6 4.6 3.8 2.5 1.3 1.4 0.5 0.6 1.0 1.0 1.5 1.5 1.2 1.3 0.5 0.3 0.5 0.1 0.1 0.1 0.0 0.1 0.3 0.0 0.0 0.1 0.2 0.2 0.3 0.2 0.0 0.1
0.6 0.8 1.9 2.5 3.2 4.5 5.2 4.7 2.7 5.0 4.3 3.0 2.1 1.0 2.0 1.1 2.9 4.1 3.7 3.4 1.9 1.5 0.9 0.7 0.0 0.0 0.5 0.4 0.0 0.1 0.0 0.2 0.3 0.2 0.3 0.1 0.1 0.0
5.1 3.6 2.3 1.7 5.2 2.2 1.4 2.6 4.1 5.0 4.7 4.4 4.7 4.9 3.5 3.0 2.3 5.2 6.2 4.8 9.2 4.8 3.9 2.9 0.6 1.0 0.5 1.7 1.1 1.1 0.2 0.3 0.4 0.2 0.3 0.1 0.1 0.8
6.5 7.2 5.8 6.4 5.1 3.9 4.6 2.3 2.7 1.6 3.8 4.1 4.2 4.4 5.4 5.4 4.8 3.9 5.5 9.8 8.2 3.9 4.1 9.2 4.1 2.9 1.6 1.4 2.2 0.5 1.0 0.2 0.3 0.5 0.8 0.3 0.1 0.0
6.1 3.9 2.4 2.3 4.6 3.7 5.3 5.3 3.5 3.8 3.4 5.0 7.6 7.5 7.5 8.1 6.0 7.1 4.7 6.2 12.4 11.6 4.8 11.4 11.4 15.5 8.8 9.4 3.7 1.9 2.3 0.8 1.4 1.7 0.6 0.7 0.6 0.1
4.0 3.0 1.3 1.6 1.7 1.8 1.5 1.9 2.4 2.5 2.3 2.4 3.9 3.7 5.3 4.0 6.1 8.9 17.4 18.3 18.3 13.0 8.2 10.7 12.2 15.1 15.3 9.9 12.1 8.2 8.7 9.4 9.7 3.1 4.0 4.2 4.1 3.7
4.5 3.1 3.6 1.6 2.1 2.3 2.6 2.2 2.9 4.1 3.1 1.7 1.7 1.0 2.0 1.8 2.0 2.1 4.3 10.5 12.0 14.5 12.2 14.0 13.3 15.4 24.1 24.7 20.0 15.0 13.7 16.2 14.4 12.0 8.7 8.6 5.7 4.9
3.9 4.5 4.2 7.0 6.7 4.1 1.7 2.3 4.1 3.3 2.3 2.4 1.6 2.2 1.4 1.8 2.0 1.3 2.3 4.0 7.6 5.8 7.5 14.4 21.0 19.4 23.2 19.8 16.9 14.7 12.0 12.8 13.9 9.8 8.4 8.5 6.6 5.0
13.6 10.7 10.5 8.7 9.4 7.0 6.2 7.0 4.6 6.2 5.9 4.2 6.6 7.9 12.8 8.9 12.5 8.4 9.7 10.0 8.6 10.0 10.5 11.6 15.6 14.5 14.6 13.8 11.4 10.7 9.1 8.3 7.9 9.8 12.0 9.4 9.4 11.9
14.3 12.6 15.4 11.9 13.2 12.0 13.9 14.3 13.7 14.1 13.9 18.0 25.5 25.0 23.3 21.2 18.4 16.2 13.4 12.3 12.7 9.1 11.0 11.4 10.6 11.5 11.2 12.1 9.8 8.1 11.9 9.4 6.5 6.5 9.6 10.7 11.9 12.0
8.9 7.8 10.6 12.4 9.8 12.6 14.9 11.5 14.6 22.8 25.0 25.0 24.2 24.5 23.0 21.3 20.1 18.0 16.9 18.0 17.8 17.9 15.7 14.4 14.1 15.9 16.9 15.1 13.9 13.3 12.1 12.1 9.7 9.8 11.5 13.7 15.3 14.7
9.4 16.8 22.6 17.2 19.5 19.8 18.7 19.1 19.1 19.6 19.9 19.3 18.8 17.8 16.9 15.4 14.5 13.3 13.0 11.5 13.3 12.2 14.3 16.5 13.5 13.5 12.1 12.7 15.5 13.2 13.1 10.1 10.1 12.5 11.1 14.6 15.8 15.0
17.1 17.4 17.5 17.0 15.7 14.7 14.8 14.1 13.1 12.7 11.8 10.8 11.0 10.1 11.4 10.9 8.9 8.0 7.4 8.4 8.2 7.4 7.1 7.8 10.2 13.2 14.2 13.0 10.7 15.0 13.7 13.8 12.8 12.3 12.2 13.9 13.3 16.3
13.0 10.1 11.5 11.3 10.0 8.6 8.0 7.4 8.7 7.8 5.6 6.3 6.8 6.3 5.5 6.0 7.4 6.0 5.8 4.9 5.6 4.5 3.5 4.5 5.6 7.4 8.8 9.5 7.1 4.5 9.2 8.9 10.0 11.2 10.8 12.7 14.3 15.0
7.2 6.4 6.6 5.7 5.3 5.4 5.2 5.3 5.6 4.8 5.0 3.9 4.1 3.9 4.4 4.8 4.8 4.9 4.9 5.2 4.5 4.8 4.2 2.8 2.0 3.0 6.4 9.5 9.0 3.0 2.8 8.0 5.6 5.5 5.6 7.8 7.7 9.0
4.9 4.6 4.4 4.4 5.1 5.0 4.6 4.7 5.6 5.9 4.6 5.9 4.8 5.6 5.8 6.1 5.1 4.1 4.6 4.5 6.0 4.9 5.0 3.1 1.6 2.0 3.2 5.2 8.1 4.1 2.9 2.5 2.2 3.3 4.9 5.8 4.9 5.5
4.8 4.5 3.6 4.1 3.6 3.9 4.3 4.4 4.3 4.8 5.3 5.4 4.3 3.9 4.5 4.4 4.8 3.8 3.8 4.2 3.1 2.9 2.3 2.2 2.2 3.2 4.7 4.9 5.6 4.1 2.6 4.3 3.1 1.9 2.5 3.8 7.8 9.8
5.1 4.3 4.3 3.6 3.2 3.6 3.6 3.9 3.4 3.1 3.4 4.4 3.6 3.2 4.2 4.6 3.6 3.7 3.6 3.5 3.7 3.4 3.5 4.3 3.1 2.3 2.6 2.9 4.7 5.3 3.6 4.0 3.7 5.3 5.3 3.3 3.0 2.3

GFSNE_prec_snow_309.txt.gz
Snowfall_Accumulation
1.9 2.8 3.3 3.2 4.4 4.7 3.8 2.9 7.1 4.3 0.5 0.0 0.0 0.0 0.0 0.0 0.0 0.0 0.0 0.0 0.0 0.0 0.0 0.1 0.1 0.2 0.1 0.1 0.1 0.1 0.0 0.0 0.0 0.0 0.0 0.0 0.0 0.0
2.2 2.9 3.1 4.3 4.9 4.4 3.1 1.1 1.2 3.0 1.4 0.0 0.0 0.0 0.0 0.0 0.0 0.0 0.0 0.0 0.0 0.1 0.0 0.0 0.1 0.2 0.2 0.1 0.2 0.1 0.3 0.1 0.1 0.0 0.0 0.0 0.0 0.0
2.5 3.7 4.4 4.5 4.8 4.0 1.8 1.1 1.8 0.4 0.5 0.1 0.1 0.0 0.0 0.0 0.0 0.0 0.0 0.0 0.0 0.0 0.1 0.1 0.1 0.2 0.1 0.1 0.2 0.2 0.2 0.3 0.2 0.2 0.1 0.3 0.2 0.1
3.5 4.1 5.8 5.4 4.8 2.8 1.5 0.9 1.9 0.2 0.4 0.1 0.6 0.3 0.1 0.0 0.0 0.0 0.0 0.0 0.0 0.0 0.0 0.0 0.2 0.1 0.1 0.2 0.1 0.2 0.3 0.2 0.3 0.2 0.2 0.2 0.3 0.3
7.1 5.9 7.0 6.3 6.4 6.0 2.7 1.4 1.4 0.6 0.9 0.2 0.2 0.0 0.8 0.3 0.2 0.7 0.3 0.1 0.1 0.0 0.0 0.0 0.0 0.1 0.1 0.0 0.1 0.1 0.2 0.3 0.2 0.2 0.2 0.1 0.1 0.3
4.9 5.4 6.9 6.7 6.8 6.6 5.6 4.6 3.8 2.5 1.3 1.4 0.5 0.6 1.0 1.0 1.5 1.5 1.2 1.3 0.5 0.3 0.5 0.1 0.1 0.1 0.0 0.1 0.3 0.0 0.0 0.1 0.2 0.2 0.3 0.2 0.0 0.1
2.4 2.5 4.1 3.7 3.2 4.5 5.2 4.7 2.7 5.0 4.3 3.0 2.1 1.0 2.0 1.1 2.9 4.1 3.7 3.4 1.9 1.5 0.9 0.7 0.0 0.0 0.5 0.4 0.0 0.1 0.0 0.2 0.3 0.2 0.3 0.1 0.1 0.0
6.8 5.1 4.0 2.8 6.1 2.2 1.4 2.6 4.1 5.0 4.7 4.4 4.7 4.9 3.5 3.0 2.3 5.2 6.2 4.8 9.2 4.8 3.9 2.9 0.6 1.0 0.5 1.7 1.1 1.1 0.2 0.3 0.4 0.2 0.3 0.1 0.1 0.8
7.5 8.2 7.1 7.8 6.7 3.9 4.6 2.3 2.7 1.6 3.8 4.1 4.2 4.4 5.4 5.4 4.8 3.9 5.5 9.8 8.2 3.9 4.1 9.2 4.1 2.9 1.6 1.4 2.2 0.5 1.0 0.2 0.3 0.5 0.8 0.3 0.1 0.0
6.8 5.0 3.6 3.7 6.8 3.7 5.3 5.3 3.5 3.8 3.4 5.0 7.6 7.5 7.5 8.1 6.0 7.1 4.7 6.2 12.4 11.6 4.8 11.4 11.4 15.5 8.8 9.4 3.7 1.9 2.3 0.8 1.4 1.7 0.6 0.7 0.6 0.1
4.1 3.6 2.3 2.8 3.6 2.9 1.5 1.9 2.4 2.5 2.3 2.4 3.9 3.7 5.3 4.0 6.1 8.9 17.4 18.3 18.3 13.0 8.2 10.7 12.2 15.1 15.3 9.9 12.1 8.2 8.7 9.4 9.7 3.1 4.0 4.2 4.1 3.7
4.5 3.3 4.7 3.6 3.0 3.1 2.6 2.2 2.9 4.1 3.1 1.7 1.7 1.0 2.0 1.8 2.0 2.1 4.3 10.5 12.0 14.5 12.2 14.0 13.3 15.4 24.1 24.7 20.0 15.0 13.7 16.2 14.4 12.0 8.7 8.6 5.7 4.9
3.9 4.7 4.8 7.9 6.8 4.4 1.7 2.3 4.1 3.3 2.3 2.4 1.6 2.2 1.4 1.8 2.0 1.3 2.3 4.0 7.6 5.8 7.5 14.4 21.0 19.4 23.2 19.8 16.9 14.7 12.0 12.8 13.9 9.8 8.4 8.5 6.6 5.0
13.6 10.7 10.7 8.7 9.4 7.0 6.5 7.0 4.6 6.2 5.9 4.2 6.6 7.9 12.8 8.9 12.5 8.4 9.7 10.0 8.6 10.0 10.5 11.6 15.6 14.5 14.6 13.8 11.4 10.7 9.1 8.3 7.9 9.8 12.0 9.4 9.4 11.9
14.3 12.6 15.4 11.9 13.2 12.0 13.9 14.3 13.7 14.1 13.9 18.0 25.5 25.0 23.3 21.2 18.4 16.2 13.4 12.3 12.7 9.1 11.0 11.4 10.6 11.5 11.2 12.1 9.8 8.1 11.9 9.4 6.5 6.5 9.6 10.7 11.9 12.0
8.9 7.8 10.6 12.4 9.8 12.6 14.9 11.5 14.6 22.8 25.0 25.2 24.7 25.3 23.7 21.3 20.1 18.0 16.9 18.0 17.8 17.9 15.7 14.4 14.1 15.9 16.9 15.1 13.9 13.3 12.1 12.1 9.7 9.8 11.5 13.7 15.3 14.7
9.4 16.8 22.6 17.2 19.5 19.8 18.7 19.1 19.1 19.6 19.9 19.3 18.8 17.8 16.9 15.4 14.5 13.3 13.0 11.5 13.3 12.2 14.3 16.5 13.5 13.5 12.1 12.7 15.5 13.2 13.1 10.1 10.1 12.5 11.1 14.6 15.8 15.0
17.1 17.4 17.5 17.0 15.7 14.7 14.8 14.1 13.1 12.7 11.8 10.8 11.0 10.1 11.4 10.9 8.9 8.0 7.4 8.5 8.5 10.0 8.1 9.2 11.7 14.8 15.7 15.0 13.3 15.0 16.6 16.5 12.8 12.3 12.2 13.9 13.3 16.3
13.0 10.1 11.5 11.3 10.0 8.6 8.0 7.4 8.7 7.8 5.6 6.3 6.8 6.3 5.5 6.0 7.4 6.0 6.0 4.9 5.6 5.6 5.0 6.5 8.2 10.0 11.7 10.3 10.6 8.0 13.2 13.0 14.4 15.4 14.8 16.2 17.7 18.3
7.2 6.4 6.6 5.7 5.3 5.4 5.2 5.3 5.6 4.8 5.0 3.9 4.1 3.9 4.4 4.8 4.8 4.9 4.9 5.2 4.5 4.9 4.4 3.1 2.5 3.6 7.2 10.6 10.4 4.6 4.2 9.6 7.1 7.1 7.3 9.4 9.3 10.8
4.9 4.6 4.4 4.4 5.1 5.0 4.6 4.7 5.6 5.9 4.6 5.9 4.8 5.6 5.8 6.1 5.1 4.1 4.6 4.5 6.0 4.9 5.0 3.1 1.6 2.0 3.3 5.2 8.1 4.5 3.0 2.8 2.7 3.9 5.7 6.6 5.7 6.2
4.8 4.5 3.6 4.1 3.6 3.9 4.3 4.4 4.3 4.8 5.3 5.4 4.3 3.9 4.5 4.4 4.8 3.8 3.8 4.2 3.1 2.9 2.3 2.2 2.3 3.2 4.8 4.9 5.6 4.1 2.6 4.3 3.1 1.9 2.5 3.8 7.8 9.8
5.1 4.3 4.3 3.6 3.2 3.6 3.6 3.9 3.4 3.1 3.4 4.4 3.6 3.2 4.2 4.6 3.6 3.7 3.6 3.5 3.7 3.4 3.5 4.3 3.1 2.3 2.6 2.9 4.7 5.3 3.6 4.0 3.7 5.3 5.3 3.3 3.0 2.3

GFSNE_prec_snow_312.txt.gz
Snowfall_Accumulation
2.9 3.6 4.2 3.9 4.9 5.0 3.9 3.0 7.2 4.4 0.5 0.0 0.0 0.0 0.0 0.0 0.0 0.0 0.0 0.0 0.0 0.0 0.0 0.1 0.1 0.2 0.1 0.1 0.1 0.1 0.0 0.0 0.0 0.0 0.0 0.0 0.0 0.0
3.4 3.7 3.9 5.0 5.3 4.6 3.2 1.1 1.3 3.0 1.4 0.0 0.0 0.0 0.0 0.0 0.0 0.0 0.0 0.0 0.0 0.1 0.0 0.0 0.1 0.2 0.2 0.1 0.2 0.1 0.3 0.1 0.1 0.0 0.0 0.0 0.0 0.0
3.6 5.0 5.5 5.2 5.1 4.0 1.8 1.2 1.9 0.5 0.6 0.1 0.1 0.0 0.0 0.0 0.0 0.0 0.0 0.0 0.0 0.0 0.1 0.1 0.1 0.2 0.1 0.1 0.2 0.2 0.2 0.3 0.2 0.2 0.1 0.3 0.2 0.1
4.9 5.3 7.0 6.2 5.1 2.9 1.5 1.0 1.9 0.2 0.4 0.1 0.6 0.3 0.1 0.0 0.0 0.0 0.0 0.0 0.0 0.0 0.0 0.0 0.2 0.1 0.1 0.2 0.1 0.2 0.3 0.2 0.3 0.2 0.2 0.2 0.3 0.3
8.3 7.1 8.1 6.6 6.4 6.0 2.7 1.4 1.4 0.6 0.9 0.2 0.2 0.0 0.8 0.3 0.2 0.7 0.3 0.1 0.1 0.0 0.0 0.0 0.0 0.1 0.1 0.0 0.1 0.1 0.2 0.3 0.2 0.2 0.2 0.1 0.1 0.3
6.5 6.7 7.8 6.7 6.8 6.6 5.6 4.6 3.8 2.5 1.3 1.4 0.5 0.6 1.0 1.0 1.5 1.5 1.2 1.3 0.5 0.3 0.5 0.1 0.1 0.1 0.0 0.1 0.3 0.0 0.0 0.1 0.2 0.2 0.3 0.2 0.0 0.1
3.7 2.5 4.1 3.7 3.2 4.5 5.2 4.7 2.7 5.0 4.3 3.0 2.1 1.0 2.0 1.1 2.9 4.1 3.7 3.4 1.9 1.5 0.9 0.7 0.0 0.0 0.5 0.4 0.0 0.1 0.0 0.2 0.3 0.2 0.3 0.1 0.1 0.0
8.6 5.1 4.0 2.8 6.1 2.2 1.4 2.6 4.1 5.0 4.7 4.4 4.7 4.9 3.5 3.0 2.3 5.2 6.2 4.8 9.2 4.8 3.9 2.9 0.6 1.0 0.5 1.7 1.1 1.1 0.2 0.3 0.4 0.2 0.3 0.1 0.1 0.8
8.8 8.2 7.1 7.8 6.7 3.9 4.6 2.3 2.7 1.6 3.8 4.1 4.2 4.4 5.4 5.4 4.8 3.9 5.5 9.8 8.2 3.9 4.1 9.2 4.1 2.9 1.6 1.4 2.2 0.5 1.0 0.2 0.3 0.5 0.8 0.3 0.1 0.0
6.8 5.0 3.6 3.7 6.8 3.7 5.3 5.3 3.5 3.8 3.4 5.0 7.6 7.5 7.5 8.1 6.0 7.1 4.7 6.2 12.4 11.6 4.8 11.4 11.4 15.5 8.8 9.4 3.7 1.9 2.3 0.8 1.4 1.7 0.6 0.7 0.6 0.1
4.6 3.6 2.3 2.8 3.6 2.9 1.5 1.9 2.4 2.5 2.3 2.4 3.9 3.7 5.3 4.0 6.1 8.9 17.4 18.3 18.3 13.0 8.2 10.7 12.2 15.1 15.3 9.9 12.1 8.2 8.7 9.4 9.7 3.1 4.0 4.2 4.1 3.7
4.7 3.3 4.7 3.6 3.0 3.1 2.6 2.2 2.9 4.1 3.1 1.7 1.7 1.0 2.0 1.8 2.0 2.1 4.3 10.5 12.0 14.5 12.2 14.0 13.3 15.4 24.1 24.7 20.0 15.0 13.7 16.2 14.4 12.0 8.7 8.6 5.7 4.9
3.9 4.7 4.8 7.9 6.8 4.4 1.7 2.3 4.1 3.3 2.3 2.4 1.6 2.2 1.4 1.8 2.0 1.3 2.3 4.0 7.6 5.8 7.5 14.4 21.0 19.4 23.2 19.8 16.9 14.7 12.0 12.8 13.9 9.8 8.4 8.5 6.6 5.0
13.7 11.0 10.7 8.7 9.4 7.0 6.5 7.0 4.6 6.2 5.9 4.2 6.6 7.9 12.8 8.9 12.5 8.4 9.7 10.0 8.6 10.0 10.5 11.6 15.6 14.5 14.6 13.8 11.4 10.7 9.1 8.3 7.9 9.8 12.0 9.4 9.4 11.9
14.3 12.6 15.4 11.9 13.2 12.0 13.9 14.3 13.7 14.1 13.9 18.0 25.5 25.0 23.3 21.2 18.4 16.2 13.4 12.3 12.7 9.1 11.0 11.4 10.6 11.5 11.2 12.1 9.8 8.1 11.9 9.4 6.5 6.5 9.6 10.7 11.9 12.0
8.9 7.8 10.6 12.4 9.8 12.6 14.9 11.5 14.6 22.8 25.0 25.2 24.7 25.3 23.7 21.3 20.1 18.0 16.9 18.0 17.8 17.9 15.7 14.4 14.1 15.9 16.9 15.1 13.9 13.3 12.1 12.1 9.7 9.8 11.5 13.7 15.3 14.7
9.4 16.8 22.6 17.2 19.5 19.8 18.7 19.1 19.1 19.6 19.9 19.3 18.8 17.8 16.9 15.4 14.5 13.3 13.0 11.5 13.3 12.2 14.3 16.5 13.5 13.5 12.1 12.7 15.5 13.2 13.1 10.1 10.1 12.5 11.1 14.6 15.8 15.0
17.1 17.4 17.5 17.0 15.7 14.7 14.8 14.1 13.1 12.7 11.8 10.8 11.0 10.1 11.4 10.9 8.9 8.0 7.4 8.5 8.5 10.0 8.1 9.2 11.7 14.8 15.7 15.0 13.3 15.0 16.6 16.5 12.8 12.3 12.2 13.9 13.3 16.3
13.0 10.1 11.5 11.3 10.0 8.6 8.0 7.4 8.7 7.8 5.6 6.3 6.8 6.3 5.5 6.0 7.4 6.0 6.0 4.9 5.6 5.6 5.0 6.5 8.2 10.0 11.7 10.3 10.6 11.0 15.7 15.2 16.5 17.4 16.8 17.9 19.2 19.7
7.2 6.4 6.6 5.7 5.3 5.4 5.2 5.3 5.6 4.8 5.0 3.9 4.1 3.9 4.4 4.8 4.8 4.9 4.9 5.2 4.5 4.9 5.9 4.7 4.3 5.8 9.4 12.7 12.6 7.1 6.4 11.8 8.8 8.4 8.3 10.2 10.1 11.6
4.9 4.6 4.4 4.4 5.1 5.0 4.6 4.7 5.6 5.9 4.6 5.9 4.8 5.6 5.8 6.1 5.1 4.1 4.7 4.7 6.1 5.1 5.1 3.2 1.7 2.1 3.6 5.4 8.4 4.7 3.1 2.9 2.7 3.9 5.7 6.7 5.8 6.2
4.8 4.5 3.6 4.1 3.6 3.9 4.3 4.4 4.3 4.8 5.3 5.4 4.3 3.9 4.5 4.4 4.8 3.8 3.8 4.2 3.1 2.9 2.4 2.3 2.3 3.3 4.9 5.0 5.7 4.1 2.6 4.3 3.1 1.9 2.5 3.8 7.8 9.8
5.1 4.3 4.3 3.6 3.2 3.6 3.6 3.9 3.4 3.1 3.4 4.4 3.6 3.2 4.2 4.6 3.6 3.7 3.6 3.5 3.7 3.4 3.5 4.3 3.1 2.3 2.6 2.9 4.7 5.3 3.6 4.0 3.8 5.3 5.3 3.4 3.0 2.3